QPF
0.00 0.00 0.00 0.00 0.00 0.00 0.00 0.00 0.00 0.00 0.00 0.00 0.00 0.00 0.00 0.00 0.00 0.00 0.00 0.00 0.00 0.00 0.00 0.00 0.00 0.00 0.00 0.00 0.00 0.00 0.00 0.00 0.00 0.00 0.00 0.00 0.00 0.00 0.00 0.00 0.00 0.00 0.00 0.00 0.00 0.00 0.00 0.00 0.00
0.00 0.00 0.00 0.00 0.00 0.00 0.00 0.00 0.00 0.00 0.00 0.00 0.00 0.00 0.00 0.00 0.00 0.00 0.00 0.00 0.00 0.00 0.00 0.00 0.00 0.00 0.00 0.00 0.00 0.00 0.00 0.00 0.00 0.00 0.01 0.03 0.01 0.00 0.00 0.00 0.00 0.00 0.00 0.00 0.00 0.00 0.00 0.00 0.00
0.00 0.00 0.00 0.00 0.00 0.00 0.00 0.00 0.00 0.00 0.00 0.00 0.00 0.00 0.00 0.00 0.00 0.00 0.00 0.00 0.00 0.00 0.00 0.00 0.00 0.00 0.00 0.00 0.01 0.00 0.04 0.00 0.00 0.02 0.03 0.04 0.03 0.01 0.00 0.00 0.00 0.00 0.00 0.00 0.00 0.00 0.00 0.00 0.00
0.00 0.00 0.00 0.00 0.00 0.00 0.00 0.00 0.00 0.00 0.00 0.00 0.00 0.00 0.00 0.00 0.00 0.00 0.00 0.00 0.00 0.00 0.00 0.00 0.00 0.00 0.00 0.04 0.02 0.00 0.05 0.01 0.00 0.00 0.02 0.07 0.13 0.02 0.00 0.00 0.00 0.00 0.00 0.00 0.00 0.00 0.00 0.00 0.00
0.00 0.00 0.00 0.00 0.00 0.00 0.00 0.00 0.00 0.00 0.00 0.00 0.00 0.00 0.00 0.00 0.00 0.00 0.00 0.00 0.00 0.00 0.00 0.00 0.00 0.00 0.00 0.09 0.23 0.16 0.10 0.03 0.00 0.01 0.04 0.07 0.23 0.16 0.01 0.00 0.00 0.00 0.00 0.00 0.00 0.00 0.00 0.00 0.00
0.00 0.00 0.00 0.00 0.00 0.00 0.00 0.00 0.00 0.00 0.00 0.00 0.00 0.00 0.00 0.00 0.00 0.00 0.00 0.00 0.00 0.00 0.00 0.00 0.00 0.00 0.01 0.02 0.22 0.49 0.56 0.35 0.14 0.05 0.04 0.01 0.03 0.11 0.04 0.00 0.00 0.00 0.00 0.00 0.00 0.00 0.00 0.00 0.00
0.00 0.00 0.00 0.00 0.00 0.00 0.00 0.00 0.00 0.00 0.00 0.00 0.00 0.00 0.00 0.00 0.00 0.00 0.00 0.00 0.00 0.00 0.00 0.00 0.00 0.00 0.00 0.04 0.03 0.08 0.27 0.39 0.28 0.16 0.08 0.04 0.04 0.00 0.00 0.00 0.00 0.00 0.00 0.00 0.00 0.00 0.00 0.00 0.00
0.00 0.00 0.00 0.00 0.00 0.00 0.00 0.00 0.00 0.00 0.00 0.00 0.00 0.00 0.00 0.00 0.00 0.00 0.00 0.00 0.00 0.00 0.00 0.00 0.00 0.00 0.00 0.00 0.00 0.01 0.09 0.28 0.27 0.20 0.16 0.06 0.06 0.02 0.00 0.00 0.00 0.00 0.00 0.00 0.00 0.00 0.00 0.00 0.00
0.00 0.00 0.00 0.00 0.00 0.00 0.00 0.00 0.00 0.00 0.00 0.00 0.00 0.00 0.00 0.00 0.00 0.00 0.00 0.00 0.00 0.00 0.00 0.00 0.00 0.00 0.00 0.01 0.02 0.03 0.05 0.22 0.23 0.22 0.16 0.10 0.04 0.01 0.00 0.00 0.00 0.00 0.00 0.00 0.00 0.00 0.00 0.00 0.00
0.00 0.00 0.00 0.00 0.00 0.00 0.00 0.00 0.00 0.00 0.00 0.00 0.00 0.00 0.00 0.00 0.00 0.00 0.00 0.00 0.00 0.00 0.00 0.00 0.00 0.00 0.00 0.02 0.01 0.02 0.03 0.11 0.29 0.22 0.06 0.09 0.03 0.00 0.00 0.00 0.00 0.00 0.00 0.00 0.00 0.00 0.00 0.00 0.00
0.00 0.00 0.00 0.00 0.00 0.00 0.00 0.00 0.00 0.00 0.00 0.00 0.00 0.00 0.00 0.00 0.00 0.00 0.00 0.00 0.00 0.00 0.00 0.00 0.00 0.00 0.00 0.01 0.01 0.06 0.03 0.04 0.19 0.18 0.06 0.06 0.02 0.04 0.04 0.02 0.00 0.00 0.00 0.00 0.00 0.00 0.00 0.00 0.00
0.00 0.00 0.00 0.00 0.00 0.00 0.00 0.00 0.00 0.00 0.00 0.00 0.00 0.00 0.00 0.00 0.00 0.00 0.00 0.00 0.00 0.00 0.00 0.00 0.00 0.01 0.01 0.01 0.04 0.14 0.03 0.02 0.11 0.28 0.11 0.02 0.01 0.03 0.03 0.02 0.00 0.00 0.00 0.00 0.00 0.00 0.00 0.00 0.00
0.00 0.00 0.00 0.00 0.00 0.00 0.00 0.00 0.00 0.00 0.00 0.00 0.00 0.00 0.00 0.00 0.00 0.00 0.00 0.00 0.00 0.00 0.00 0.00 0.00 0.04 0.06 0.07 0.11 0.19 0.05 0.00 0.06 0.18 0.13 0.03 0.00 0.01 0.03 0.04 0.00 0.00 0.00 0.00 0.00 0.00 0.00 0.00 0.00
0.00 0.00 0.00 0.00 0.00 0.00 0.00 0.00 0.00 0.00 0.00 0.00 0.00 0.00 0.00 0.00 0.00 0.00 0.00 0.00 0.00 0.00 0.00 0.00 0.00 0.01 0.04 0.09 0.16 0.19 0.10 0.02 0.01 0.11 0.13 0.06 0.01 0.01 0.00 0.01 0.02 0.00 0.00 0.00 0.00 0.00 0.00 0.00 0.00
0.00 0.00 0.00 0.00 0.00 0.00 0.00 0.00 0.00 0.00 0.00 0.00 0.00 0.00 0.00 0.00 0.00 0.00 0.00 0.00 0.00 0.00 0.00 0.00 0.00 0.00 0.01 0.02 0.09 0.13 0.08 0.03 0.01 0.01 0.06 0.15 0.05 0.03 0.00 0.00 0.03 0.01 0.00 0.00 0.00 0.00 0.00 0.00 0.00
0.00 0.00 0.00 0.00 0.00 0.00 0.00 0.00 0.00 0.00 0.00 0.00 0.00 0.00 0.00 0.00 0.00 0.00 0.00 0.00 0.00 0.00 0.00 0.00 0.00 0.00 0.01 0.00 0.03 0.07 0.07 0.03 0.04 0.01 0.02 0.12 0.18 0.06 0.00 0.00 0.01 0.00 0.00 0.00 0.00 0.00 0.00 0.00 0.00
0.00 0.00 0.00 0.00 0.00 0.00 0.00 0.00 0.00 0.00 0.00 0.00 0.00 0.00 0.00 0.00 0.00 0.00 0.00 0.00 0.00 0.00 0.00 0.00 0.00 0.00 0.01 0.01 0.00 0.02 0.06 0.07 0.04 0.01 0.00 0.02 0.05 0.05 0.00 0.01 0.04 0.02 0.00 0.00 0.00 0.00 0.00 0.00 0.00
0.00 0.00 0.00 0.00 0.00 0.00 0.00 0.00 0.00 0.00 0.00 0.00 0.00 0.00 0.00 0.00 0.00 0.00 0.00 0.00 0.00 0.00 0.00 0.00 0.00 0.00 0.00 0.00 0.00 0.01 0.02 0.05 0.09 0.04 0.01 0.00 0.01 0.01 0.00 0.01 0.02 0.04 0.03 0.02 0.00 0.00 0.00 0.00 0.00
0.00 0.00 0.00 0.00 0.00 0.00 0.00 0.00 0.00 0.00 0.00 0.00 0.00 0.00 0.00 0.00 0.00 0.00 0.00 0.00 0.00 0.00 0.00 0.00 0.00 0.00 0.00 0.00 0.01 0.01 0.00 0.01 0.06 0.07 0.02 0.00 0.00 0.00 0.00 0.00 0.00 0.01 0.00 0.00 0.00 0.00 0.00 0.00 0.00
0.00 0.00 0.00 0.00 0.00 0.00 0.00 0.00 0.00 0.00 0.00 0.00 0.00 0.00 0.00 0.00 0.00 0.00 0.00 0.00 0.00 0.00 0.00 0.00 0.00 0.00 0.00 0.00 0.00 0.00 0.00 0.00 0.02 0.06 0.02 0.00 0.00 0.00 0.00 0.00 0.00 0.00 0.00 0.00 0.00 0.00 0.00 0.00 0.00
0.00 0.00 0.00 0.00 0.00 0.00 0.00 0.00 0.00 0.00 0.00 0.00 0.00 0.00 0.00 0.00 0.00 0.00 0.00 0.00 0.00 0.00 0.00 0.00 0.00 0.00 0.00 0.00 0.00 0.00 0.00 0.00 0.01 0.02 0.01 0.00 0.00 0.00 0.00 0.00 0.00 0.00 0.00 0.00 0.00 0.00 0.00 0.00 0.00
0.00 0.00 0.00 0.00 0.00 0.00 0.00 0.00 0.00 0.00 0.00 0.00 0.00 0.00 0.00 0.00 0.00 0.00 0.00 0.00 0.00 0.00 0.00 0.00 0.00 0.00 0.00 0.00 0.00 0.00 0.00 0.00 0.01 0.01 0.00 0.00 0.00 0.00 0.00 0.00 0.01 0.02 0.01 0.00 0.00 0.00 0.00 0.00 0.00
0.00 0.00 0.00 0.00 0.00 0.00 0.00 0.00 0.00 0.00 0.00 0.00 0.00 0.00 0.00 0.00 0.00 0.00 0.00 0.00 0.00 0.00 0.00 0.00 0.00 0.00 0.00 0.00 0.00 0.00 0.00 0.00 0.00 0.01 0.00 0.00 0.00 0.00 0.00 0.00 0.02 0.03 0.04 0.04 0.00 0.00 0.00 0.00 0.00
0.00 0.00 0.00 0.00 0.00 0.00 0.00 0.00 0.00 0.00 0.00 0.00 0.00 0.00 0.00 0.00 0.00 0.00 0.00 0.00 0.00 0.00 0.00 0.00 0.00 0.00 0.00 0.00 0.00 0.00 0.00 0.00 0.00 0.00 0.00 0.00 0.00 0.00 0.00 0.01 0.02 0.03 0.04 0.06 0.03 0.00 0.00 0.00 0.00
0.00 0.00 0.00 0.00 0.00 0.00 0.00 0.00 0.00 0.00 0.00 0.00 0.00 0.00 0.00 0.00 0.00 0.00 0.00 0.00 0.00 0.00 0.00 0.00 0.00 0.00 0.00 0.00 0.00 0.00 0.00 0.00 0.00 0.00 0.00 0.00 0.00 0.01 0.00 0.00 0.01 0.02 0.03 0.04 0.05 0.02 0.00 0.01 0.01
0.00 0.00 0.00 0.01 0.00 0.00 0.00 0.00 0.00 0.00 0.00 0.00 0.00 0.00 0.00 0.00 0.00 0.00 0.00 0.00 0.00 0.00 0.00 0.00 0.00 0.00 0.00 0.00 0.00 0.00 0.00 0.00 0.00 0.00 0.00 0.00 0.00 0.00 0.00 0.00 0.01 0.01 0.02 0.02 0.04 0.05 0.03 0.03 0.03
0.00 0.00 0.00 0.00 0.00 0.00 0.00 0.00 0.00 0.00 0.00 0.00 0.00 0.00 0.00 0.00 0.00 0.00 0.00 0.00 0.00 0.00 0.00 0.00 0.00 0.00 0.00 0.00 0.00 0.00 0.00 0.00 0.00 0.00 0.00 0.00 0.00 0.00 0.00 0.00 0.00 0.00 0.00 0.00 0.00 0.01 0.02 0.00 0.01
0.00 0.00 0.00 0.00 0.00 0.01 0.00 0.00 0.00 0.00 0.00 0.00 0.00 0.00 0.00 0.00 0.00 0.00 0.00 0.00 0.00 0.00 0.00 0.00 0.00 0.00 0.00 0.00 0.00 0.00 0.00 0.00 0.00 0.00 0.00 0.00 0.00 0.00 0.01 0.00 0.00 0.00 0.00 0.00 0.00 0.00 0.00 0.00 0.00
0.00 0.00 0.00 0.00 0.00 0.01 0.00 0.00 0.00 0.00 0.00 0.00 0.00 0.00 0.00 0.00 0.00 0.00 0.00 0.00 0.00 0.00 0.00 0.00 0.00 0.00 0.00 0.00 0.00 0.00 0.00 0.00 0.00 0.00 0.00 0.00 0.00 0.00 0.00 0.00 0.00 0.00 0.00 0.00 0.00 0.00 0.00 0.00 0.00
0.01 0.00 0.00 0.00 0.00 0.00 0.00 0.00 0.00 0.00 0.00 0.00 0.00 0.00 0.00 0.00 0.00 0.00 0.00 0.00 0.00 0.00 0.00 0.00 0.00 0.00 0.00 0.00 0.00 0.00 0.00 0.00 0.00 0.00 0.00 0.00 0.00 0.00 0.00 0.00 0.00 0.00 0.00 0.00 0.00 0.00 0.00 0.00 0.00
MSLP
1009.40 1009.22 1008.62 1007.50 1006.70 1004.25 1001.49 999.68 999.13 999.92 1000.17 1000.79 1001.58 1002.21 1002.62 1002.69 1002.82 1003.79 1004.89 1005.41 1005.57 1005.71 1006.60 1007.15 1007.46 1008.00 1008.65 1009.24 1009.64 1010.10 1011.04 1010.96 1011.44 1011.60 1011.80 1012.15 1012.47 1012.67 1013.18 1013.38 1013.88 1014.27 1014.73 1015.44 1015.86 1016.00 1016.60 1016.99 1017.22
1008.67 1007.81 1007.36 1006.38 1005.18 1002.72 999.98 999.14 999.33 999.78 1000.56 1001.61 1002.16 1002.36 1002.38 1002.38 1002.44 1003.31 1004.53 1005.47 1005.76 1005.75 1006.29 1006.75 1007.61 1008.15 1008.65 1009.15 1009.81 1010.23 1010.71 1010.86 1011.34 1011.69 1012.09 1012.93 1013.14 1013.20 1013.39 1013.69 1013.94 1014.45 1014.97 1015.72 1016.21 1016.11 1017.12 1017.39 1017.49
1009.17 1007.59 1006.79 1005.35 1003.54 1001.73 999.59 999.17 999.60 1000.06 1000.86 1001.84 1002.12 1001.99 1001.95 1002.21 1002.77 1003.82 1005.05 1005.53 1005.69 1005.80 1005.78 1006.14 1007.12 1007.86 1008.65 1009.25 1009.68 1010.06 1010.29 1010.68 1011.28 1011.71 1011.39 1013.07 1013.59 1013.70 1013.74 1014.07 1014.03 1014.70 1015.28 1015.99 1016.33 1016.75 1017.44 1017.78 1018.10
1007.58 1006.80 1006.29 1004.43 1002.51 1000.69 999.33 999.00 999.74 1000.54 1000.98 1001.21 1001.83 1002.10 1001.92 1001.51 1002.43 1003.40 1004.51 1005.20 1005.47 1005.71 1006.18 1007.03 1007.42 1007.49 1008.14 1008.74 1009.49 1009.84 1010.09 1010.50 1010.77 1011.64 1011.69 1012.61 1013.81 1013.69 1013.89 1014.53 1014.38 1014.83 1015.53 1016.34 1016.26 1017.69 1017.69 1018.10 1018.45
1006.97 1005.93 1004.64 1003.22 1001.61 999.91 998.76 999.17 1000.04 1000.89 1000.94 1001.18 1001.60 1001.64 1001.79 1001.85 1002.67 1003.66 1004.30 1004.86 1005.27 1005.59 1005.87 1006.83 1007.45 1007.91 1008.19 1008.24 1009.04 1009.54 1009.91 1010.00 1010.61 1010.98 1011.95 1012.68 1013.98 1014.15 1014.24 1014.52 1014.92 1014.87 1015.78 1016.50 1017.00 1017.84 1017.98 1018.27 1018.51
1006.11 1005.13 1003.99 1002.19 1000.31 998.98 998.59 999.10 1000.05 1001.01 1001.22 1001.20 1001.25 1001.52 1001.94 1001.91 1002.71 1003.79 1004.66 1004.96 1005.20 1005.76 1006.30 1006.75 1007.41 1007.80 1008.14 1008.34 1008.42 1008.86 1008.87 1009.40 1010.07 1011.00 1011.80 1012.26 1013.49 1014.05 1015.00 1014.92 1015.08 1015.60 1015.44 1016.55 1017.53 1017.59 1018.15 1018.61 1018.75
1005.53 1004.62 1003.13 1001.82 1000.47 999.49 998.67 998.79 999.69 1000.72 1000.82 1000.82 1000.88 1001.24 1001.70 1002.38 1003.48 1004.17 1004.88 1005.20 1005.49 1006.00 1006.53 1006.57 1007.07 1007.55 1007.97 1008.36 1008.76 1008.99 1009.92 1007.55 1010.55 1010.53 1011.57 1012.43 1013.33 1013.55 1014.41 1015.23 1015.53 1015.63 1016.15 1016.73 1017.27 1017.81 1018.29 1018.80 1019.03
1005.10 1004.31 1002.99 1001.80 1000.40 999.24 998.56 998.71 999.76 1000.67 1000.77 1000.68 1000.94 1001.29 1001.74 1002.76 1003.64 1004.33 1005.06 1005.33 1005.83 1006.29 1006.68 1006.77 1007.19 1007.43 1007.71 1007.97 1008.90 1009.29 1008.86 1008.48 1010.34 1010.99 1011.67 1012.27 1013.43 1013.91 1014.24 1015.02 1015.54 1015.97 1016.41 1016.93 1017.44 1018.11 1018.59 1019.22 1019.31
1004.68 1003.83 1002.41 1001.22 1000.11 998.72 998.48 998.90 999.49 1000.21 1000.44 1000.79 1000.85 1000.68 1000.78 1001.49 1003.11 1003.93 1004.66 1005.02 1005.50 1006.10 1006.48 1006.86 1007.24 1007.29 1007.55 1007.93 1008.39 1009.17 1008.59 1009.14 1011.66 1010.57 1011.36 1012.42 1013.73 1014.06 1014.37 1015.14 1015.59 1016.26 1016.89 1017.33 1017.86 1018.27 1018.88 1019.39 1019.36
1004.12 1003.05 1002.04 1001.15 999.96 999.07 999.05 999.30 999.35 999.75 999.99 1000.07 1000.05 1000.01 999.97 1001.32 1002.40 1003.06 1003.70 1003.97 1004.43 1005.23 1006.20 1006.68 1007.12 1007.20 1007.48 1007.86 1008.02 1008.32 1008.76 1008.88 1010.25 1010.42 1011.27 1012.72 1013.73 1013.62 1014.11 1015.35 1015.86 1016.39 1017.29 1017.62 1018.20 1018.69 1019.11 1019.32 1019.49
1003.43 1002.18 1002.09 1000.97 1000.04 999.64 999.41 999.46 999.53 999.16 999.30 999.34 999.33 999.53 999.90 1000.63 1001.60 1002.38 1003.02 1003.38 1003.67 1004.37 1005.63 1006.42 1006.99 1007.29 1007.63 1007.90 1008.38 1008.21 1008.60 1009.64 1008.62 1009.69 1011.02 1012.28 1013.23 1013.43 1014.13 1015.56 1016.29 1016.77 1017.50 1017.93 1018.55 1018.87 1019.21 1019.47 1019.68
1002.77 1002.02 1001.64 1000.96 1000.42 999.99 999.69 999.48 999.25 999.18 999.03 999.04 999.01 999.29 999.59 1000.10 1000.91 1001.65 1002.52 1002.99 1003.48 1004.36 1005.45 1006.05 1006.66 1007.25 1007.32 1007.80 1008.15 1008.65 1008.90 1007.80 1008.02 1009.64 1010.31 1011.73 1012.09 1012.97 1013.76 1015.09 1016.16 1016.76 1017.37 1017.84 1018.41 1018.78 1018.97 1019.47 1019.52
1002.33 1001.58 1001.00 1000.74 1000.24 1000.01 999.81 999.42 999.20 998.87 998.87 998.93 998.90 999.05 999.27 999.88 1000.61 1001.24 1002.00 1002.86 1003.61 1004.28 1005.13 1005.93 1006.37 1006.87 1007.17 1007.57 1007.82 1008.39 1008.84 1008.85 1009.00 1010.09 1009.89 1011.12 1011.52 1012.61 1013.52 1014.74 1015.89 1016.63 1016.91 1017.42 1018.04 1018.39 1018.66 1019.12 1019.34
1002.43 1001.48 1000.61 1000.22 999.87 999.84 999.73 999.05 998.84 998.48 998.41 998.25 998.32 998.46 998.86 999.51 1000.22 1000.95 1001.98 1002.94 1003.55 1004.12 1004.95 1005.68 1006.23 1006.59 1006.76 1007.29 1007.54 1007.74 1008.53 1009.04 1009.44 1010.24 1010.66 1010.97 1011.63 1012.63 1013.43 1014.33 1015.44 1016.20 1016.52 1017.11 1017.61 1017.94 1018.21 1018.70 1019.27
1002.90 1002.14 1001.25 1000.49 1000.07 999.55 999.54 998.61 998.02 997.95 997.46 997.16 997.25 997.62 998.26 998.99 999.75 1000.52 1001.43 1002.11 1002.95 1003.84 1004.78 1005.58 1006.05 1006.53 1006.70 1007.01 1007.47 1007.76 1008.37 1009.18 1010.11 1010.00 1010.68 1011.27 1011.59 1012.48 1013.22 1014.12 1015.23 1015.93 1016.30 1016.82 1017.29 1017.62 1017.97 1018.65 1018.93
1003.44 1002.71 1001.30 1000.63 999.97 999.23 999.17 997.48 997.44 997.05 996.33 996.17 996.77 997.34 997.52 998.05 998.97 999.97 1001.03 1001.78 1002.67 1003.73 1004.73 1005.49 1006.03 1006.40 1006.81 1007.07 1007.54 1008.05 1008.40 1008.88 1009.63 1009.88 1010.10 1010.76 1011.74 1012.51 1013.29 1013.91 1014.70 1015.18 1015.93 1016.39 1016.90 1017.38 1017.95 1018.67 1019.09
1003.72 1002.53 1001.63 1000.64 999.98 998.64 997.65 996.85 996.50 996.23 995.61 995.93 996.39 996.69 996.85 997.12 998.30 999.38 1000.52 1001.90 1002.83 1003.98 1004.88 1005.64 1006.16 1006.62 1006.73 1007.11 1007.52 1007.94 1008.41 1008.72 1009.19 1009.91 1010.43 1011.03 1012.25 1012.93 1013.18 1013.77 1014.32 1014.49 1015.32 1015.85 1016.60 1017.11 1017.86 1018.57 1019.09
1002.80 1002.05 1001.36 1000.72 999.94 998.78 997.10 996.40 996.38 996.20 995.65 995.40 995.66 995.85 996.16 996.35 997.52 998.93 1000.20 1001.86 1003.30 1004.25 1005.05 1005.81 1006.30 1006.52 1006.77 1007.32 1007.96 1008.20 1008.44 1008.81 1009.09 1009.82 1010.33 1011.15 1012.25 1013.13 1013.20 1013.43 1014.15 1014.32 1014.96 1015.55 1016.34 1016.88 1017.73 1018.44 1018.93
1002.78 1002.32 1001.61 1001.80 1000.61 1000.08 997.69 996.13 995.70 995.60 995.02 994.80 994.83 994.88 995.19 995.56 996.32 998.42 999.99 1001.60 1003.37 1004.49 1005.10 1005.64 1006.09 1006.52 1007.04 1007.53 1008.02 1008.19 1008.11 1008.60 1009.04 1009.37 1010.14 1010.94 1012.07 1012.54 1013.17 1013.39 1014.10 1014.46 1015.09 1015.75 1016.15 1016.88 1017.77 1018.42 1018.58
1002.20 1002.08 1001.90 1001.90 1001.24 1000.78 999.25 996.82 995.63 995.44 994.89 994.61 994.48 994.40 994.59 994.89 996.08 998.16 999.88 1001.51 1003.37 1004.49 1005.09 1005.57 1005.90 1006.43 1006.67 1007.08 1007.67 1007.99 1007.93 1008.03 1008.53 1008.73 1009.56 1010.39 1011.70 1012.28 1012.95 1013.18 1013.85 1014.32 1014.95 1015.92 1016.19 1016.88 1017.92 1018.28 1018.42
1001.68 1001.55 1001.96 1002.22 1001.74 1000.67 999.04 996.51 995.50 994.80 994.69 994.36 993.93 993.84 994.03 994.51 995.73 997.67 999.61 1001.11 1002.99 1004.40 1004.93 1005.46 1005.69 1006.16 1006.44 1006.55 1007.22 1007.36 1007.27 1007.65 1008.05 1008.59 1008.61 1009.76 1011.08 1011.89 1012.59 1013.19 1013.66 1014.25 1015.10 1016.10 1016.37 1017.02 1017.64 1018.12 1018.43
1001.34 1001.76 1001.83 1001.71 1001.69 1000.78 999.74 996.48 995.29 994.47 993.54 992.93 992.73 992.92 993.57 994.06 995.00 996.91 998.97 1000.62 1002.30 1003.90 1004.65 1005.18 1005.72 1006.02 1006.42 1006.58 1006.88 1007.14 1007.05 1006.87 1007.02 1007.70 1008.96 1009.50 1010.56 1011.89 1012.79 1013.46 1013.93 1014.51 1015.48 1016.31 1016.66 1017.02 1017.33 1017.86 1018.49
1000.64 1001.43 1001.93 1002.21 1001.50 1000.77 999.25 997.61 995.21 994.27 993.08 992.49 992.02 992.01 992.62 993.29 994.22 996.02 998.02 999.90 1001.52 1003.22 1004.21 1004.88 1005.49 1005.94 1006.23 1006.59 1006.77 1007.33 1007.48 1007.53 1007.40 1008.07 1008.52 1009.86 1010.89 1011.82 1012.89 1013.58 1014.26 1015.24 1015.83 1016.15 1016.59 1017.11 1017.33 1017.46 1018.39
1000.61 1001.33 1002.12 1002.16 1001.65 1000.07 999.31 997.72 995.16 993.87 992.90 992.18 991.43 991.34 991.72 992.44 993.54 995.23 997.20 999.32 1000.97 1002.56 1003.67 1004.55 1005.28 1005.74 1005.96 1006.49 1006.67 1007.36 1007.71 1007.85 1008.34 1008.76 1009.29 1010.35 1011.20 1012.16 1013.17 1013.65 1014.53 1015.12 1015.63 1016.15 1016.64 1017.15 1017.09 1017.41 1017.77
1001.13 1001.40 1002.01 1002.07 1001.43 999.27 998.89 996.73 994.72 993.29 992.21 991.52 990.88 990.94 991.61 992.56 993.59 994.89 996.79 998.79 1000.42 1002.14 1003.14 1004.11 1005.09 1005.55 1005.87 1006.21 1006.53 1007.18 1007.91 1008.28 1008.54 1009.10 1009.73 1010.54 1011.28 1012.15 1013.05 1013.91 1014.67 1014.97 1015.61 1016.09 1016.13 1016.28 1016.99 1017.48 1017.51
1000.86 1001.19 1001.72 1001.65 1001.24 1000.37 999.69 996.85 993.65 992.20 991.40 990.98 990.76 990.95 991.44 992.45 993.50 994.71 996.28 998.11 999.75 1001.47 1002.70 1003.60 1004.62 1005.20 1005.74 1006.04 1006.30 1007.08 1007.68 1008.18 1008.60 1008.88 1009.57 1010.39 1011.27 1011.98 1012.92 1013.77 1014.32 1014.76 1015.11 1015.29 1015.65 1016.91 1016.71 1016.91 1017.04
1000.45 1000.39 1001.22 1001.78 1001.58 1001.11 1000.11 996.95 993.79 992.44 991.26 991.12 991.12 990.91 991.52 992.17 993.09 994.35 995.80 997.38 998.94 1000.72 1001.95 1002.74 1003.90 1004.71 1005.39 1005.75 1006.11 1006.67 1007.30 1007.80 1008.29 1008.75 1009.33 1010.16 1011.03 1011.91 1012.78 1013.45 1013.90 1014.37 1014.56 1014.82 1015.54 1015.79 1016.06 1016.24 1016.48
1000.14 1000.81 1000.94 1001.41 1001.53 1000.71 998.92 996.74 994.88 993.55 992.75 992.05 991.57 991.22 991.37 991.65 992.50 993.74 995.24 996.68 998.17 999.79 1001.06 1002.16 1002.86 1003.81 1004.78 1005.43 1005.84 1006.27 1006.79 1007.49 1008.13 1008.57 1009.06 1009.62 1010.44 1011.17 1012.06 1012.80 1013.44 1013.95 1014.20 1014.84 1014.91 1015.16 1015.42 1015.65 1015.85
1000.14 1000.44 1000.70 1001.32 1001.29 1000.25 999.03 996.71 994.93 994.59 993.33 992.72 992.21 991.55 991.32 991.26 991.86 992.96 994.47 995.95 997.42 998.84 1000.16 1001.37 1002.12 1002.82 1003.89 1004.77 1005.39 1005.89 1006.41 1006.94 1007.67 1008.36 1008.97 1009.32 1009.89 1010.44 1011.15 1011.92 1012.55 1013.10 1013.54 1013.87 1014.23 1014.61 1014.83 1015.01 1015.12
1000.29 999.77 1000.25 1000.47 1000.33 999.89 999.10 996.73 995.15 995.50 994.06 993.29 992.98 992.60 991.64 991.38 991.72 992.33 993.75 995.25 996.61 998.04 999.38 1000.49 1001.24 1001.91 1002.96 1003.83 1004.71 1005.36 1005.96 1006.46 1007.07 1007.80 1008.46 1008.97 1009.52 1010.03 1010.49 1011.11 1011.75 1012.19 1012.58 1012.97 1013.38 1013.73 1014.01 1014.31 1014.56
Thickness
5741 5740 5744 5741 5713 5729 5735 5763 5775 5756 5754 5763 5757 5742 5732 5736 5723 5703 5737 5738 5734 5730 5726 5721 5718 5711 5705 5700 5696 5692 5683 5687 5685 5687 5687 5687 5687 5690 5689 5690 5688 5687 5686 5682 5680 5682 5679 5678 5677
5743 5748 5744 5733 5711 5713 5750 5778 5756 5759 5758 5755 5747 5741 5734 5726 5745 5740 5733 5735 5732 5730 5725 5720 5712 5706 5701 5695 5690 5689 5685 5685 5682 5681 5681 5673 5675 5679 5681 5682 5684 5681 5680 5676 5672 5677 5670 5671 5672
5735 5746 5725 5719 5723 5719 5746 5768 5757 5762 5756 5744 5738 5748 5738 5729 5739 5734 5734 5730 5730 5727 5725 5721 5711 5704 5697 5689 5685 5684 5684 5681 5677 5675 5678 5667 5665 5668 5672 5672 5677 5676 5674 5670 5668 5667 5664 5664 5665
5739 5737 5730 5713 5718 5747 5761 5768 5759 5751 5751 5750 5742 5725 5744 5752 5741 5740 5736 5730 5726 5724 5718 5708 5703 5701 5694 5688 5681 5679 5679 5679 5678 5671 5671 5665 5657 5662 5665 5663 5669 5670 5669 5664 5666 5657 5662 5662 5660
5739 5731 5714 5717 5729 5753 5775 5767 5760 5741 5743 5742 5740 5726 5728 5745 5740 5736 5731 5728 5722 5719 5716 5704 5698 5692 5687 5686 5679 5674 5672 5677 5677 5673 5667 5664 5656 5656 5659 5660 5661 5665 5661 5660 5659 5656 5659 5658 5659
5719 5730 5708 5714 5740 5769 5776 5765 5753 5742 5741 5741 5736 5729 5726 5741 5734 5728 5723 5721 5721 5713 5707 5700 5691 5689 5683 5677 5678 5674 5672 5672 5672 5668 5665 5664 5656 5648 5649 5653 5656 5654 5660 5655 5652 5656 5656 5653 5655
5714 5714 5714 5727 5735 5746 5763 5767 5745 5738 5738 5737 5746 5723 5730 5727 5726 5720 5715 5715 5713 5708 5700 5696 5689 5682 5677 5671 5665 5664 5654 5655 5656 5674 5666 5659 5658 5656 5654 5650 5651 5654 5653 5652 5653 5653 5652 5650 5650
5721 5718 5712 5724 5729 5737 5767 5763 5750 5738 5733 5754 5746 5718 5714 5718 5722 5714 5710 5708 5703 5698 5693 5689 5682 5677 5670 5666 5653 5646 5655 5668 5656 5663 5661 5661 5653 5651 5649 5649 5652 5653 5650 5651 5650 5649 5650 5645 5647
5729 5704 5704 5722 5731 5749 5767 5748 5753 5752 5739 5740 5742 5737 5740 5734 5722 5711 5705 5703 5700 5693 5689 5682 5675 5673 5664 5654 5643 5624 5635 5640 5625 5655 5657 5653 5646 5645 5646 5645 5649 5649 5644 5645 5646 5647 5644 5641 5643
5709 5701 5709 5735 5746 5745 5750 5746 5747 5736 5734 5733 5735 5745 5747 5730 5720 5708 5702 5701 5702 5698 5686 5676 5668 5666 5658 5646 5633 5623 5624 5637 5632 5646 5652 5643 5640 5646 5647 5642 5643 5644 5641 5642 5641 5641 5639 5637 5638
5711 5704 5717 5729 5742 5744 5741 5740 5745 5738 5728 5737 5732 5739 5741 5729 5719 5713 5706 5704 5702 5700 5686 5673 5662 5659 5652 5643 5630 5630 5635 5632 5649 5650 5648 5642 5641 5648 5646 5638 5637 5639 5639 5638 5637 5636 5634 5632 5634
5695 5713 5718 5726 5734 5732 5729 5740 5734 5737 5738 5747 5747 5744 5740 5731 5722 5715 5705 5703 5700 5693 5682 5673 5664 5655 5653 5643 5635 5631 5632 5640 5650 5646 5643 5646 5649 5651 5647 5637 5635 5636 5637 5636 5634 5632 5632 5630 5632
5695 5708 5719 5724 5727 5726 5729 5727 5728 5733 5744 5746 5746 5742 5735 5727 5721 5717 5711 5703 5696 5688 5681 5671 5664 5657 5653 5646 5641 5639 5637 5640 5643 5642 5647 5648 5653 5649 5645 5637 5633 5632 5635 5635 5633 5633 5631 5630 5629
5697 5703 5710 5718 5721 5723 5713 5723 5727 5737 5742 5741 5740 5737 5734 5727 5720 5714 5706 5697 5692 5687 5680 5671 5663 5657 5656 5649 5645 5646 5643 5644 5647 5644 5644 5649 5649 5645 5644 5638 5632 5632 5634 5633 5632 5633 5632 5630 5627
5684 5674 5690 5701 5711 5713 5717 5705 5716 5736 5744 5740 5741 5737 5733 5728 5723 5714 5707 5703 5697 5687 5678 5668 5662 5654 5654 5652 5647 5646 5645 5642 5638 5643 5640 5643 5646 5642 5640 5636 5631 5630 5631 5631 5631 5631 5632 5629 5627
5659 5664 5660 5691 5706 5715 5708 5690 5723 5738 5740 5737 5738 5733 5733 5731 5724 5717 5710 5703 5697 5685 5674 5665 5659 5654 5649 5650 5648 5645 5646 5648 5643 5643 5646 5646 5640 5636 5634 5634 5632 5631 5629 5630 5631 5630 5628 5624 5623
5646 5637 5651 5670 5700 5707 5711 5698 5727 5738 5738 5731 5734 5733 5733 5730 5725 5718 5711 5699 5692 5680 5670 5659 5655 5649 5648 5647 5648 5646 5643 5645 5644 5639 5640 5639 5631 5629 5630 5633 5631 5634 5630 5631 5630 5628 5625 5620 5618
5635 5641 5650 5652 5683 5695 5706 5704 5717 5726 5729 5730 5732 5734 5733 5734 5722 5720 5709 5698 5684 5676 5667 5657 5649 5647 5645 5642 5640 5640 5640 5639 5637 5635 5635 5632 5627 5625 5628 5631 5627 5632 5632 5628 5628 5625 5622 5618 5616
5637 5634 5636 5643 5673 5662 5692 5709 5712 5720 5726 5729 5733 5735 5733 5734 5734 5722 5709 5697 5680 5670 5663 5656 5650 5645 5638 5634 5633 5635 5638 5635 5631 5630 5629 5628 5624 5624 5624 5627 5628 5626 5628 5622 5625 5621 5616 5613 5614
5634 5625 5626 5635 5653 5651 5663 5682 5706 5711 5717 5724 5729 5733 5735 5737 5727 5715 5704 5693 5677 5666 5661 5655 5650 5644 5641 5636 5633 5630 5630 5631 5626 5626 5629 5628 5622 5622 5622 5626 5624 5624 5625 5619 5619 5616 5609 5609 5609
5628 5623 5616 5611 5633 5642 5652 5666 5689 5708 5714 5722 5731 5736 5738 5736 5722 5713 5700 5692 5676 5663 5659 5655 5651 5644 5641 5639 5635 5631 5626 5619 5617 5619 5626 5627 5621 5620 5619 5618 5621 5619 5617 5613 5613 5610 5605 5602 5602
5609 5629 5623 5621 5616 5607 5647 5640 5680 5698 5710 5722 5728 5733 5731 5733 5731 5716 5701 5691 5678 5665 5659 5656 5649 5644 5639 5638 5634 5633 5628 5623 5623 5621 5618 5622 5620 5616 5613 5611 5612 5613 5608 5605 5604 5604 5601 5600 5593
5618 5624 5615 5611 5613 5618 5634 5632 5668 5693 5695 5712 5726 5734 5733 5735 5733 5716 5705 5694 5684 5669 5659 5655 5649 5643 5638 5634 5629 5625 5622 5619 5620 5616 5619 5615 5614 5612 5608 5607 5604 5601 5599 5599 5597 5594 5595 5597 5591
5629 5612 5606 5608 5607 5599 5625 5631 5654 5676 5696 5710 5727 5735 5736 5736 5733 5721 5709 5696 5685 5672 5663 5654 5648 5643 5641 5634 5629 5620 5617 5619 5615 5614 5613 5609 5609 5606 5602 5601 5597 5595 5594 5592 5589 5588 5591 5591 5590
5607 5597 5577 5573 5582 5597 5635 5639 5656 5690 5707 5716 5726 5731 5730 5732 5725 5719 5705 5693 5684 5670 5664 5655 5647 5642 5640 5635 5631 5623 5615 5613 5614 5612 5610 5605 5603 5601 5597 5594 5591 5591 5588 5584 5587 5590 5586 5585 5586
5595 5594 5574 5559 5575 5596 5605 5607 5663 5704 5716 5724 5729 5728 5729 5725 5721 5714 5706 5694 5685 5671 5664 5657 5648 5642 5638 5636 5633 5625 5618 5613 5611 5613 5611 5606 5601 5599 5594 5590 5589 5588 5585 5586 5587 5578 5584 5586 5585
5593 5585 5603 5580 5591 5584 5592 5636 5680 5696 5703 5710 5714 5722 5720 5717 5717 5711 5705 5695 5687 5674 5666 5661 5651 5645 5640 5638 5635 5629 5623 5618 5615 5614 5611 5608 5603 5597 5592 5589 5587 5585 5585 5586 5584 5585 5585 5585 5584
5593 5599 5580 5583 5560 5565 5603 5623 5634 5659 5672 5689 5700 5709 5714 5718 5716 5711 5703 5695 5689 5679 5670 5663 5658 5649 5642 5638 5635 5630 5626 5621 5618 5616 5613 5611 5606 5602 5597 5593 5589 5586 5587 5585 5586 5586 5585 5583 5583
5584 5579 5583 5583 5581 5575 5583 5613 5652 5654 5671 5680 5686 5699 5709 5715 5713 5711 5704 5697 5690 5683 5674 5665 5661 5655 5647 5641 5636 5633 5629 5624 5619 5615 5612 5611 5608 5606 5602 5598 5594 5591 5590 5589 5587 5584 5582 5583 5583
5582 5588 5586 5573 5577 5593 5593 5609 5658 5644 5659 5671 5677 5688 5702 5708 5713 5712 5704 5697 5690 5683 5675 5667 5664 5660 5651 5645 5638 5633 5629 5626 5622 5617 5614 5611 5608 5605 5603 5600 5596 5595 5593 5591 5587 5585 5585 5584 5583